Location: Rounton
(54.4000°N, 1.3500°W)
Time: 03:59:51
(UTC+00:00)

S-56A Canister/Altair - Pass Details

Date: 04 December 2021
Orbit: 633 x 2499 km, 38.9° (Epoch: 17 January)

Event Time Altitude Azimuth Distance (km) Brightness Sun altitude
Rises 03:16:09 0° 252° (WSW) 4,169 - -40.8°
Reaches altitude 10° 03:20:28 10° 234° (SW) 2,835 - -40.2°
Maximum altitude 03:24:19 16° 198° (SSW) 2,113 - -39.7°
Drops below altitude 10° 03:27:34 10° 159° (SSE) 2,309 - -39.2°
Exits shadow 03:30:18 - 139° (SE) 2,989 10.8 -38.8°
Sets 03:30:34 0° 138° (SE) 3,066 10.9 -38.8°
